This demonstration page uses our WeatherBlox Daily Observations layout. Learn more.

Left ArrowRight Arrow

38.89511, -77.03637

Hourly Observations for June 3, 2022

Temp ( °F °C ) Dew Point ( °F °C ) Humidity (%) Winds ( mph kmh ) Pressure ( in mb ) Visibility ( mi km ) Precip ( " mm )
12:52 am 00:52 Mostly Cloudy 72 22.2 69 20.6 91 91 Calm 29.74 1007 10 16 0.00 0.00
1:52 am 01:52 Partly Cloudy 72 22.2 68 20 87 87 WNW 5 7 29.74 1007 10 16 0.00 0.00
2:52 am 02:52 Partly Cloudy 71 21.7 66 18.9 84 84 WNW 6 9 29.74 1007 10 16 0.00 0.00
3:52 am 03:52 Partly Cloudy 71 21.7 65 18.3 81 81 WNW 7 11 29.74 1007 10 16 0.00 0.00
4:52 am 04:52 Partly Cloudy 71 21.7 64 17.8 79 79 NW 14 22 29.76 1008 10 16 0.00 0.00
5:52 am 05:52 Mostly Cloudy 69 20.6 60 15.6 73 73 WNW 12 19 29.78 1009 10 16 0.00 0.00
6:52 am 06:52 Mostly Cloudy 67 19.4 58 14.4 73 73 NW 9 15 29.80 1009 10 16 0.00 0.00
7:52 am 07:52 Cloudy 69 20.6 57 13.9 66 66 NW 16 26 29.82 1010 10 16 0.00 0.00
8:52 am 08:52 Mostly Cloudy 69 20.6 56 13.3 63 63 NNW 12 19 29.84 1010 10 16 0.00 0.00
9:52 am 09:52 Mostly Cloudy 69 20.6 53 11.7 57 57 NW 13 20 29.85 1011 10 16 0.00 0.00
10:52 am 10:52 Mostly Cloudy 72 22.2 53 11.7 52 52 WNW 12 19 29.86 1011 10 16 0.00 0.00
11:52 am 11:52 Sunny 74 23.3 53 11.7 48 48 NW 13 20 29.85 1011 10 16 0.00 0.00
12:52 pm 12:52 Mostly Cloudy 77 25 53 11.7 43 43 NW 10 17 29.85 1011 10 16 0.00 0.00
1:52 pm 13:52 Mostly Cloudy 77 25 48 8.9 36 36 NNW 13 20 29.85 1011 10 16 0.00 0.00
2:52 pm 14:52 Mostly Cloudy 79 26.1 48 8.9 34 34 NW 12 19 29.85 1011 10 16 0.00 0.00
3:52 pm 15:52 Sunny 78 25.6 48 8.9 35 35 NW 16 26 29.84 1011 10 16 0.00 0.00
4:52 pm 16:52 Mostly Cloudy 79 26.1 49 9.4 35 35 WNW 14 22 29.83 1010 10 16 0.00 0.00
5:52 pm 17:52 Mostly Cloudy 80 26.7 48 8.9 33 33 NW 14 22 29.83 1010 10 16 0.00 0.00
6:52 pm 18:52 Mostly Cloudy 77 25 49 9.4 37 37 NW 6 9 29.84 1010 10 16 0.00 0.00
7:52 pm 19:52 Mostly Cloudy 77 25 49 9.4 37 37 WNW 8 13 29.85 1011 10 16 0.00 0.00
8:52 pm 20:52 Mostly Cloudy 76 24.4 47 8.3 36 36 W 5 7 29.86 1011 10 16 0.00 0.00
9:52 pm 21:52 Partly Cloudy 73 22.8 50 10 44 44 W 6 9 29.87 1012 10 16 0.00 0.00
10:52 pm 22:52 Partly Cloudy 72 22.2 49 9.4 44 44 W 5 7 29.88 1012 10 16 0.00 0.00
11:52 pm 23:52 Mostly Clear 70 21.1 51 10.6 51 51 SW 5 7 29.89 1012 10 16 0.00 0.00

Powered by AerisWeather